sat.trackr.live / text

‹ back to catalog

YAOGAN-30 05A

NORAD 43170 · 2018-011B

PAYLOAD ACTIVE UNKNOWN

§ Identity

Operator
Country
PRC
Launch date
2018-01-25
Launch site
XICLF
Launch vehicle
Mass (kg)
RCS (m²)

External: N2YO · Heavens-Above · Gunter

§ Orbital elements

Epoch: 2026-09-20T04:01:26.470272Z

Period
95.81 min
Inclination
34.9964°
Eccentricity
0.0002733
Mean motion
15.03028616 rev/d
Perigee alt
555.7 km
Apogee alt
559.5 km
Semi-major
6,935.7 km
B*
1.2050e-4
RAAN
291.9021°
Arg perigee
88.2725°
Mean anomaly
271.8296°
Rev number
47,244

§ Raw data

YAOGAN-30 05A1 43170U 18011B   26263.16766748  .00001626  00000+0  12050-3 0  99952 43170  34.9964 291.9021 0002733  88.2725 271.8296 15.03028616472441

JSON: /api/v1/satellites/43170 · /tle

For live sub-satellite position, see the globe view (requires WebGL).

§ Visibility from observer

Set your observer location to see the next 7 days of passes ≥ 10°. The values pass through the URL so the page stays shareable.

No JS? Fill the form by hand. The geolocation button needs JavaScript.